Simultaneous Nadir Overpasses (SNOs) Predictions

Prediction of SNOs between AQUA and METOP-B Satellite Orbit:

Table of predicted SNOs for the next 14.0 days since TLE Epoch: 9/25/2020
Index Date (AQUA) Time (AQUA) Lat,Lon (AQUA) SZA (AQUA ) Date (METOP-B) Time (METOP-B) Lat,Lon (METOP-B) SZA (METOP-B ) Distance(km) Time Diff (sec)
1 09/26/2020 00:16:15 73.81, 170.26 75.10 09/26/2020 00:15:35 73.79, 170.23 75.08 2.78 40
2 09/26/2020 01:05:42 -73.87, -22.22 104.83 09/26/2020 01:06:15 -73.90, -22.20 104.81 2.90 33
3 09/28/2020 19:50:30 73.84,-123.35 76.22 09/28/2020 19:49:58 73.84,-123.24 76.23 3.65 32
4 09/28/2020 20:39:57 -73.89, 44.18 103.72 09/28/2020 20:40:39 -73.91, 44.23 103.71 2.59 42
5 10/01/2020 14:35:04 -73.13, 136.93 103.44 10/01/2020 14:33:58 -73.09, 134.11 103.43 91.38 66
6 10/01/2020 15:24:44 73.82, -56.87 77.29 10/01/2020 15:24:23 73.80, -56.94 77.27 2.92 21
7 10/01/2020 16:14:12 -73.91, 110.56 102.61 10/01/2020 16:15:03 -73.92, 110.66 102.61 3.23 51
8 10/04/2020 10:09:26 -73.53,-157.45 101.94 10/04/2020 10:08:15 -73.45,-158.69 102.00 40.03 71
9 10/04/2020 10:58:58 73.85, 9.48 78.41 10/04/2020 10:58:45 73.85, 9.60 78.41 3.54 13
10 10/04/2020 11:48:25 -73.89, 177.04 101.55 10/04/2020 11:49:27 -73.88, 176.98 101.56 2.62 62
11 10/07/2020 05:43:44 -73.78, -91.55 100.61 10/07/2020 05:42:32 -73.76, -91.56 100.63 2.15 72
12 10/07/2020 06:33:12 73.85, 75.94 79.47 10/07/2020 06:33:09 73.86, 76.02 79.49 3.04 3
